www.pogodaiklimat.ru

Погода и климат >> Архив погоды >> Казахстан >> Алматы


АРХИВ ПОГОДЫ в Алматы

Время (UTC), дата Ветер
(напр.,м/с)
 
Видим.   Явления Облачность Т
(С)
Тd
(С)
f
(%)
Тe
(С)
Тes
(С)
Комфортность P
(гПа)
Po
(гПа)
Тmin
(С)
Tmax
(С)
R
(мм)
R24
(мм)
S
(см)
21 12.08 штиль 0 н/о ясно +12.0 +8.3 78 +12 +12 очень
холодно
1016.1 919.3
00 13.08 штиль 0
{4}
20 км ясно +10.4 +7.6 83 +10 +10 очень
холодно
1015.7 918.5
03 13.08 штиль 0 20 км ясно +15.8 +6.8 55 1013.3 917.5
06 13.08 СЗ 1 20 км 3/3 1000 м
[Cu med, cong]
+20.0 +9.1 49 +22 +36 комфорт 1010.1 916.4 +10.0
09 13.08 С 2 10 км 4/4 1000 м
[Cu med, cong]
+21.5 +10.4 49 +23 +31 комфорт 1008.6 915.6
12 13.08 С 1 10 км 5/3 1000 м
[Cu med, cong Cs]
+20.9 +10.5 51 +24 +26 комфорт 1009.2 915.9
15 13.08 С 2 10 км 4/4 1000 м
[Cu med, cong]
+21.5 +10.4 49 +23 +23 комфорт 1008.6 915.6
18 13.08 штиль 0 н/о ясно +16.6 +12.2 75 +17 +17 холодно 1010.5 915.8 +23.0
21 13.08 штиль 0 н/о 3/0
[Ci fib]
+15.6 +10.5 72 +15 +15 холодно 1009.9 914.9
00 14.08 штиль 0 10 км 10/0
[Ac As Ci fib]
+14.8 +10.4 75 +15 +15 прохладно 1010.7 915.4
03 14.08 штиль 0 10 км 4/1 1000 м
[Cu hum Ac trans Ci fib]
+18.2 +8.8 54 +16 +16 очень
холодно
1010.5 916.2
06 14.08 штиль 0 10 км 3/3 1000 м
[Cu hum]
+23.4 +7.9 37 +24 +40 комфорт 1008.1 915.6 +14.5
09 14.08 штиль 0 10 км 3/3 1000 м
[Cu med, cong]
+25.5 +8.5 34 +26 +38 жарко 1006.7 915.0
12 14.08 С 1 10 км 10/3 1000 м
[Cu med, cong Ac trans Ci sp]
+24.7 +9.6 38 +25 +26 комфорт 1007.2 915.2
15 14.08 штиль 0 н/о 6/0
[Ac trans Ci fib]
+20.7 +10.2 51 +22 +22 комфорт 1009.0 915.6 +26.8
18 14.08 штиль 0 н/о 10/0
[Ci fib]
+17.9 +9.7 59 +18 +18 прохладно 1009.3 915.1 +26.8
21 14.08 штиль 0 н/о 10/0
[Ac trans Ci fib]
+17.7 +6.9 49 +18 +18 прохладно 1007.6 913.4
00 15.08 штиль 0
{3}
10 км 10/0
[Ac lent Ci fib]
+16.3 +6.8 53 +16 +16 прохладно 1007.9 913.2
03 15.08 штиль 0 10 км 8/4 1000 м
[Cb cap Ac trans Ci fib]
+19.8 +11.0 57 +21 +24 комфорт 1007.1 913.7
06 15.08 штиль 0 10 км 9/3 1000 м
[Cu med, cong Ac As]
+23.4 +8.1 38 +25 +31 комфорт 1006.3 913.9 +15.4 0.0
09 15.08 штиль 0 10 км {ливн. осадки} 10/3 1000 м
[Cb cap As op]
+23.4 +9.1 40 +25 +27 комфорт 1008.6 916.0
12 15.08 штиль 0 10 км {ливн. осадки} 9/8 600 м
[Cb cap Ac trans Ci sp]
+24.2 +9.3 39 +25 +25 комфорт 1007.2 915.0
15 15.08 ЮВ 1 н/о 8/6 600 м
[Cb cap Ac trans Ci sp]
+21.0 +9.0 46 +24 +24 комфорт 1009.9 916.5 +26.0
18 15.08 штиль 0 н/о 9/4 600 м
[Cb cap Ci sp]
+18.6 +10.4 59 +19 +19 прохладно 1009.6 915.6 +26.0 0.0
21 15.08 штиль 0 н/о 4/0
[Ci sp]
+17.0 +6.5 50 +17 +17 прохладно 1008.6 914.1
00 16.08 штиль 0
{3}
20 км 3/0
[Ci fib]
+15.8 +5.1 49 +16 +16 прохладно 1008.3 913.4
03 16.08 штиль 0 20 км ясно +21.4 +9.4 46 +23 +31 комфорт 1006.9 913.9
06 16.08 штиль 0 20 км 3/1 1000 м
[Cu med, cong]
+26.7 +7.4 29 +26 +43 жарко 1004.8 913.5 +15.0
09 16.08 С 3 20 км 4/3 1000 м
[Cu med, cong Ac cast Ci ing]
+26.8 +7.8 30 +27 +34 жарко 1003.8 912.7
12 16.08 штиль 0 10 км 9/8 600 м
[Cb cap Ac lent]
+25.8 +13.3 46 +28 +28 жарко 1005.0 913.6
15 16.08 СВ 1 н/о 9/8 600 м
[Cb cap Ac lent Ci sp]
+22.8 +8.7 41 +24 +24 комфорт 1009.5 916.7 +27.5
18 16.08 ЮВ 1 н/о 5/0
[Ac lent Ci fib]
+19.5 +9.1 51 +22 +22 комфорт 1009.3 915.5 +27.5
21 16.08 штиль 0 н/о 5/0
[Ci fib]
+18.7 +9.0 53 +19 +19 по сезону 1009.1 915.1
00 17.08 ЮВ 1
{4}
10 км 8/0
[Cc]
+16.1 +9.2 64 +17 +17 по сезону 1010.7 915.8
03 17.08 штиль 0 10 км 10/8 600 м
[Cb cap Ac As]
+17.4 +9.3 59 +17 +18 холодно 1010.9 916.4
06 17.08 штиль 0 10 км 8/3 600 м
[Cb cap Ac trans Ci fib]
+24.4 +7.1 33 +25 +34 комфорт 1009.0 916.7 +15.7
09 17.08 З 1 10 км {ливн. осадки} 10/8 600 м
[Cb cap Ac As Ci sp]
+21.0 +7.6 42 +23 +25 комфорт 1011.2 917.7
12 17.08 ЮЗ 1 10 км {ливн. осадки} 10/8 600 м
[Cb cap Ac As]
+22.2 +7.1 38 +23 +23 комфорт 1011.7 918.5
15 17.08 З 1 н/о {ливн. осадки} 6/3 600 м
[Cb cap Ac und Ci sp]
+18.4 +7.4 49 +20 +20 холодно 1015.2 920.5 +24.7
18 17.08 В 1 н/о {ливн. осадки} 4/3 600 м
[Cb cap Ac trans]
+17.0 +6.9 51 +18 +18 прохладно 1016.6 921.3 +24.7 0.0
21 17.08 штиль 0 н/о 3/0
[Ac trans]
+14.4 +8.3 67 +14 +14 холодно 1017.3 921.2
00 18.08 штиль 0
{6}
10 км 3/0
[Ac und]
+13.3 +6.7 64 +13 +13 холодно 1018.4 921.8
03 18.08 штиль 0 20 км 3/3 1000 м
[Cu med, cong Ac trans Ci fib]
+17.7 +8.6 55 +18 +23 холодно 1017.4 922.3
06 18.08 С 1 20 км 1/1 1000 м
[Cu med, cong]
+22.3 +7.9 40 +23 +40 комфорт 1015.3 921.8 +12.6 0.0
09 18.08 З 1 20 км 1/1 1000 м
[Cu med, cong]
+23.2 +7.8 37 +24 +37 комфорт 1014.0 920.9
12 18.08 штиль 0 20 км 3/1 1000 м
[Cu med, cong Ac lent Ci fib]
+22.6 +5.3 32 +23 +25 комфорт 1013.9 920.6
15 18.08 ЮЗ 1 н/о 8/0
[Ci fib]
+18.7 +9.6 55 +20 +20 холодно 1015.8 921.2 +25.0
18 18.08 штиль 0 н/о 10/0
[Ci fib]
+16.9 +8.9 59 +17 +17 прохладно 1015.3 920.2 +25.0
21 18.08 штиль 0 н/о 10/0
[Ci sp]
+14.0 +8.5 69 +14 +14 холодно 1014.7 918.8
00 19.08 штиль 0
{4}
10 км 10/0
[Ci fib]
+13.4 +7.7 68 +13 +13 холодно 1015.1 918.8
03 19.08 штиль 0 10 км 9/0
[Cs]
+20.3 +7.8 44 +21 +28 комфорт 1013.9 919.9
06 19.08 С 1 10 км 9/0
[Cs]
+23.7 +6.5 33 +24 +39 комфорт 1012.4 919.5 +12.9
09 19.08 СВ 1 10 км 8/0
[Cs]
+24.8 +6.6 31 +25 +37 комфорт 1011.5 919.0
12 19.08 СВ 1 10 км 9/0
[Ci sp]
+23.8 +7.2 34 +24 +26 комфорт 1012.7 919.9
15 19.08 штиль 0 н/о 3/0
[Ci fib]
+20.2 +8.8 48 +21 +21 комфорт 1015.0 920.9 +26.2

 

Местоположение метеостанции Алматы (Алматинская область, Казахстан): широта 43.23 долгота 76.93 высота над уровнем моря 851 м.

В архиве по умолчанию представлена погода в Алматы за последнюю неделю. Архивные данные за месяц целиком и за предыдущие месяцы, начиная с января 2011 года, Вы можете получить, выбрав интересующий диапазон дат из раскрывающегося списка и нажав кнопку "Ввод!".

Внимание! Время в таблицах - всемирное. Для получения местного времени необходимо прибавить поправку, которая в Алматы равна 6 ч.

Смотрите также архив погоды в соседних городах и на ближайших метеорологических станциях:

Погода в Алматы АМС (Алматинская область, Казахстан) (4 км)
Погода в Каменском плато (Алматинская область, Казахстан) (6 км)
Погода в Медеу (Алматинская область, Казахстан) (12 км)
Погода в Карасайском (Алматинская область, Казахстан) (15 км)
Погода в Шымбулаке (Алматинская область, Казахстан) (16 км)
Погода в Большом Алматинском озере (Алматинская область, Казахстан) (18 км)
Погода в Альмереке (Алматинская область, Казахстан) (21 км)
Погода в Коныролене (Алматинская область, Казахстан) (24 км)
Погода в Рыскулово (Алматинская область, Казахстан) (30 км)
Погода в Илийском (Алматинская область, Казахстан) (33 км)

Пояснения к столбцам:

Ветер - указаны скорость ветра в м/с - средняя за 10 мин, порывы в срок и между сроками (в фигурных скобках) и направление, откуда дует ветер: С - северный, СВ - северо-восточный, В - восточный, ЮВ - юго-восточный, Ю - южный, ЮЗ - юго-западный, З - западный, СЗ - северо-западный.
Видимость - горизонтальная дальность видимости в метрах или километрах. При видимости от 1 до 10 км при отсутствии осадков обычно наблюдается дымка, при ухудшении видимости до 1 км и менее - туман. В сухую погоду видимость может ухудшаться дымом, пылью или мглою.
Явления - указаны атмосферные явления, наблюдавшиеся в срок или в последний час перед сроком; фигурными скобками обозначены явления, наблюдавшиеся между сроками (за 1-3 часа до срока); квадратными скобками обозначены град или гололедные отложения с указанием их диаметра в мм.
Облачность - указаны через наклонную черту общая и нижняя облачность в баллах и высота нижней границы облаков в метрах; квадратными скобками обозначены формы облаков: Ci - перистые, Cs - перисто-слоистые, Cc - перисто-кучевые, Ac - высококучевые, As - высокослоистые, Sc - слоисто-кучевые, Ns - слоисто-дождевые, Cu - кучевые, Cb - кучево-дождевые. Подробнее классификацию облаков см. в Атласе облаков (PDF).
T - Температура воздуха - температура, измеренная на высоте 2 м над землей.
Td - Температура точки росы - температура, при понижении до которой содержащийся в воздухе водяной пар достигнет насыщения.
f - Относительная влажность воздуха - влажноcть воздуха, измеренная на высоте 2 м над землей.
Te - Эффективная температура - температура, которую ощущает одетый по сезону человек в тени. Характеристика душности погоды. При расчете учитывается влияние влажности воздуха и скорости ветра на теплоощущения человека.
Tes - Эффективная температура на солнце - температура, которую ощущает человек, с поправкой на солнечный нагрев. Характеристика знойности погоды. Зависит от высоты солнца над горизонтом, облачности и скорости ветра. Ночью, в пасмурную погоду, а также при ветре 12 м/с и более поправка равна нулю.
P - Атмосферное давление - приведенное к уровню моря атмосферное давление.
Po - Атмосферное давление - измеренное на уровне метеостанции атмосферное давление.
Tmin - Минимальная температура - минимум температуры воздуха на высоте 2 м над землей.
Tmax - Максимальная температура - максимум температуры воздуха на высоте 2 м над землей.
R - Количество осадков - Количество выпавших осадков за период времени, мм. При наведении курсора мыши на число - период времени, за который выпало указанное количество осадков.
R24 - Количество осадков - Количество выпавших осадков за 24 часа, мм.
S - Снежный покров - Высота снежного покрова, см. При наведении курсора мыши на число - состояние снежного покрова и степень покрытия местности в баллах.